Regional Weather Roundup
Issued by NWS Green Bay, WI

Home | Current Version | Previous Version | Graphics & Text | Print | Product List | Glossary Off
Versions: 1 2 3 4 5 6 7 8 9 10 11 12 13 14 15 16 17 18 19 20 21 22 23 24 25 26 27 28 29 30 31 32 33 34 35 36 37 38 39 40 41 42 43 44 45 46 47 48 49 50

641
ASUS43 KGRB 202300
RWRGRB

NORTH-CENTRAL AND NORTHEAST WISCONSIN REGIONAL WEATHER ROUNDUP
NATIONAL WEATHER SERVICE GREEN BAY WI
500 PM CST SAT JAN 20 2018

WIZ005-009-010>012-018-019-210000-
NORTH CENTRAL WISCONSIN

CITY           SKY/WX    TMP DP  RH WIND       PRES   REMARKS
IRONWOOD       MOCLDY    39  29  67 SW3       29.86R
MANITOWISH WTR NOT AVBL
ARBOR VITAE    NOT AVBL
EAGLE RIVER    FAIR      32  32  99 CALM      29.86R
LAND O LAKES   NOT AVBL
RHINELANDER    CLOUDY    36  31  82 CALM      29.87R
PHILLIPS       CLOUDY    36  31  84 SW5       29.87R
ANTIGO         NOT AVBL
TOMAHAWK       NOT AVBL
MERRILL        CLOUDY    38  32  79 CALM      29.89R
$$

WIZ013-073-210000-
NORTHEAST WISCONSIN

CITY           SKY/WX    TMP DP  RH WIND       PRES   REMARKS
IRON MOUNTAIN  CLOUDY    36  30  79 CALM      29.87R
MARINETTE      CLOUDY    39  29  67 CALM      29.93R
$$

WIZ017-030-035>037-045-210000-
CENTRAL WISCONSIN

CITY           SKY/WX    TMP DP  RH WIND       PRES   REMARKS
MEDFORD        NOT AVBL
WAUSAU         MOCLDY    38  30  73 CALM      29.88R
MOSINEE        CLOUDY    37  30  75 S5        29.90R
MARSHFIELD     MOCLDY    37  30  75 CALM      29.88R
WISC RAPIDS    FAIR      37  28  70 CALM      29.92R
STEVENS POINT  NOT AVBL
WAUPACA        NOT AVBL
SHAWANO        FAIR      42  31  63 CALM      29.91R
CLINTONVILLE   NOT AVBL
WAUTOMA        FAIR      38  31  76 CALM      29.92S
$$

WIZ038-039-048-051-210000-
FOX VALLEY

CITY           SKY/WX    TMP DP  RH WIND       PRES   REMARKS
NWS GREEN BAY  FAIR      38  30  73 S3        29.92S
APPLETON       MOCLDY    39  28  65 CALM      29.90R
OSHKOSH        FAIR      37  30  75 CALM      29.92R
FOND DU LAC    FAIR      39  28  64 CALM      29.92R
$$

WIZ022-050-052-210000-
EAST CENTRAL WISCONSIN

CITY           SKY/WX    TMP DP  RH WIND       PRES   REMARKS
EPHRAIM        NOT AVBL
WASHINGTON ISL NOT AVBL
STURGEON BAY   CLOUDY    38  29  70 CALM      29.93R
MANITOWOC      FAIR      37  31  78 S7        29.93F
SHEBOYGAN      FAIR      37  31  78 S5        29.93R
$$

LMZ563-521-522-541>543-210000-
LAKESHORE

STATION/POSITION TIME  TEMP    WIND        PRES    VSBY  WAVE
                       AIR SEA DIR/SP/G                  HT/PER
                 (UTC) (F)     (DEG/KT/KT) (MB)    (MI)  (FT/S)
SHEBOYGAN LKSHOR 2200   39     180/  6/  6 1013.7R
KEWAUNEE LKSHORE 2230   35     200/  2/  3 1012.6F
NORTHPORT PIER   2240   37        CALM     1012.9S
MENOMINEE LKSHOR 2224   38     170/  4/  5 1012.3
$$




USA.gov is the U.S. government's official web portal to all federal, state and local government web resources and services.